[[{"header":{"parameterUnit":"m.s-1","parameterCategory":1,"la1":30.2991,"la2":30.254,"lo1":-89.0895,"lo2":-89.0444,"dy":0.0017,"dx":0.0017,"nx":28,"ny":28,"refTime":"2025-02-07T03:00:00:Z","depth":0,"parameterNumber":2,"parameterNumberName":"U-component_of_WINDS"},"data":[0,0,0,0,0,0,0,0,0,0,0,0,0,0,0,0,0,0,0,0,0,0,0,0,0,0,0,0,0,0,0,0,0,0,0,0,0,0,0,0,0,0,0,0,0,0,0,0,0,0,0,0,0,0,0,0,0,0,-0.3721,-0.3721,0,-0.3696,-0.3696,-0.3696,-0.3701,-0.3701,-0.3702,-0.3702,-0.3676,-0.3675,-0.3674,0,0,0,0,0,0,0,0,0,0,0,0,0,-0.3772,-0.3771,-0.3721,-0.3721,-0.372,-0.3696,-0.3696,-0.3696,-0.3701,-0.3701,-0.3702,-0.3702,-0.3677,-0.3675,-0.3674,0,0,0,0,0,0,0,0,0,0,0,0,0,-0.3749,-0.3771,-0.3721,-0.372,-0.372,-0.3696,-0.3696,-0.3695,-0.3701,-0.3701,-0.3702,-0.3703,-0.3677,-0.3675,-0.3674,-0.365,0,0,-0.3669,-0.3668,0,0,0,0,0,0,0,0,-0.375,-0.3747,-0.372,-0.372,-0.372,-0.3702,-0.3705,-0.368,-0.37,-0.3708,-0.3702,-0.3703,-0.3684,-0.3682,-0.3676,-0.3649,-0.3647,-0.3669,-0.3668,-0.3667,-0.3666,0,0,0,0,0,0,0,-0.3752,-0.3748,-0.3711,-0.372,-0.3719,-0.3721,-0.3718,-0.37,-0.3692,-0.3707,-0.3708,-0.3705,-0.3684,-0.3678,-0.3675,-0.3647,-0.3669,-0.3667,-0.3666,-0.3665,-0.3598,-0.3598,0,0,0,0,0,0,-0.3754,-0.375,-0.3712,-0.371,-0.3737,-0.3719,-0.3716,-0.3707,-0.3693,-0.3691,-0.3704,-0.3705,-0.368,-0.3677,-0.3675,-0.3645,-0.3667,-0.3665,-0.3664,-0.3599,-0.3598,-0.3597,0,0,0,0,0,0,-0.3755,-0.3751,-0.3713,-0.373,-0.3725,-0.3718,-0.3707,-0.3706,-0.37,-0.369,-0.3689,-0.3699,-0.3681,-0.3677,-0.3656,-0.3644,-0.3665,-0.3663,-0.36,-0.3599,-0.3598,-0.3586,0,0,0,0,0,0,-0.3756,-0.3751,-0.3742,-0.373,-0.3724,-0.3695,-0.3706,-0.3705,-0.3697,-0.3698,-0.3685,-0.3683,-0.3681,-0.3658,-0.3654,-0.3642,-0.3662,-0.3601,-0.36,-0.3598,-0.3587,-0.3584,-0.3582,0,0,0,0,0,-0.3758,-0.3739,-0.3741,-0.3737,-0.3713,-0.3694,-0.3691,-0.3688,-0.3696,-0.3686,-0.368,-0.3684,-0.3646,-0.3656,-0.3652,-0.3639,-0.3602,-0.36,-0.3598,-0.3588,-0.3585,-0.3582,0,0,0,0,0,0,-0.375,-0.3738,-0.374,-0.3716,-0.3706,-0.3695,-0.3683,-0.3685,-0.3672,-0.3674,-0.3671,-0.3668,-0.3647,-0.3641,-0.3652,-0.3615,-0.3625,-0.3622,-0.3619,-0.3616,-0.3613,-0.3615,-0.366,0,0,0,0,0,-0.3746,-0.3731,-0.3722,-0.3702,-0.3697,-0.3691,-0.3682,-0.3682,-0.3671,-0.3666,-0.3659,-0.3648,-0.3634,-0.3625,-0.3611,-0.3587,-0.3584,-0.3576,-0.3573,-0.3571,-0.3568,-0.3555,-0.3551,-0.3592,-0.3592,-0.3592,0,0,-0.3736,-0.3728,-0.3719,-0.37,-0.3692,-0.3677,-0.3687,-0.3671,-0.366,-0.3664,-0.3643,-0.3638,-0.3626,-0.3603,-0.3592,-0.3597,-0.3557,-0.3569,-0.3567,-0.3566,-0.3552,-0.3548,-0.3545,-0.359,-0.3591,-0.3591,0,0,-0.3711,-0.3703,-0.3686,-0.3678,-0.3666,-0.3662,-0.3658,-0.3646,-0.3642,-0.3622,-0.3624,-0.3611,-0.3587,-0.3578,-0.357,-0.3542,-0.3545,-0.3538,-0.3524,-0.351,-0.3507,-0.3504,-0.3494,-0.349,-0.3536,-0.3536,-0.3536,0,-0.3701,-0.3678,-0.3677,-0.366,-0.3652,-0.3655,-0.3637,-0.3629,-0.3613,-0.3607,-0.3613,-0.3583,-0.3575,-0.355,-0.3543,-0.3537,-0.3531,-0.3539,-0.3508,-0.3505,-0.3502,-0.3492,-0.3488,-0.3535,-0.3535,-0.3535,-0.3535,0,-0.3666,-0.3651,-0.3638,-0.3622,-0.3613,-0.3596,-0.3591,-0.3581,-0.3581,-0.3577,-0.3556,-0.3547,-0.3531,-0.3525,-0.3525,-0.35,-0.3503,-0.3509,-0.3519,-0.3498,-0.3488,-0.3484,-0.3534,-0.3534,-0.3534,-0.3534,0,0,-0.3635,-0.3618,-0.3614,-0.3606,-0.3593,-0.3581,-0.3564,-0.3549,-0.3541,-0.353,-0.3515,-0.3495,-0.3499,-0.3491,-0.349,-0.3478,-0.3455,-0.3485,-0.3484,-0.3479,-0.3426,-0.3422,-0.3417,-0.3457,-0.3457,-0.3456,-0.3427,0,-0.3608,-0.3578,-0.3576,-0.3549,-0.3534,-0.3537,-0.3522,-0.3513,-0.3508,-0.3495,-0.349,-0.3475,-0.3483,-0.3478,-0.3467,-0.3461,-0.3445,-0.3463,-0.3443,-0.3442,-0.3445,-0.3412,-0.3407,-0.3381,-0.3423,-0.3423,-0.3422,0,-0.3572,-0.356,-0.3531,-0.352,-0.3514,-0.35,-0.3486,-0.3474,-0.3463,-0.3461,-0.3451,-0.3452,-0.3434,-0.3446,-0.3421,-0.3433,-0.3425,-0.3421,-0.342,-0.3418,-0.343,-0.3408,-0.3372,-0.3368,-0.3416,-0.3417,-0.3417,0,-0.3551,-0.3528,-0.3507,-0.3501,-0.3488,-0.3478,-0.3472,-0.3462,-0.3453,-0.344,-0.3434,-0.342,-0.3412,-0.3401,-0.3398,-0.3407,-0.3374,-0.3385,-0.3371,-0.3371,-0.3363,-0.3363,-0.3324,-0.3359,-0.3359,-0.3359,-0.3359,0,-0.3521,-0.3503,-0.3498,-0.3485,-0.3465,-0.3463,-0.3443,-0.3438,-0.3429,-0.3415,-0.3417,-0.3404,-0.3401,-0.3387,-0.3385,-0.3365,-0.3361,-0.3358,-0.3358,-0.3358,-0.3358,-0.3352,-0.3353,-0.3358,-0.3358,-0.3358,-0.3359,0,-0.3494,-0.349,-0.3468,-0.3456,-0.3453,-0.3439,-0.3429,-0.3417,-0.3413,-0.3396,-0.3391,-0.3385,-0.3369,-0.3365,-0.3346,-0.3344,-0.332,-0.3322,-0.3324,-0.3324,-0.3309,-0.331,-0.3264,-0.3258,-0.3298,-0.3297,-0.3297,0,-0.3475,-0.3461,-0.3448,-0.3439,-0.3433,-0.3418,-0.3409,-0.3406,-0.3397,-0.3383,-0.3372,-0.3357,-0.3344,-0.3319,-0.3312,-0.3297,-0.3298,-0.3283,-0.3296,-0.3296,-0.3297,-0.3297,-0.3296,-0.328,-0.328,-0.328,-0.3279,0,-0.3441,-0.3439,-0.3426,-0.3411,-0.34,-0.3389,-0.3378,-0.337,-0.3366,-0.3355,-0.3339,-0.3329,-0.331,-0.3294,-0.3279,-0.3273,-0.3275,-0.3275,-0.3271,-0.327,-0.3272,-0.327,-0.3316,-0.3276,-0.3277,-0.3277,-0.3277,-0.3277,-0.3416,-0.3404,-0.3393,-0.3378,-0.3369,-0.3359,-0.3347,-0.3341,-0.3328,-0.3312,-0.3311,-0.3293,-0.3283,-0.3263,-0.3256,-0.3242,-0.3246,-0.324,-0.3239,-0.3237,-0.3235,-0.3275,-0.3239,-0.3239,-0.3239,-0.324,-0.324,0,-0.3382,-0.3375,-0.3361,-0.3345,-0.3333,-0.3337,-0.3325,-0.3315,-0.3299,-0.3289,-0.3276,-0.3257,-0.3242,-0.3234,-0.3219,-0.3209,-0.321,-0.3205,-0.3206,-0.3204,-0.3233,-0.3237,-0.3205,-0.3205,-0.3205,-0.3205,-0.3205,-0.3205,-0.3362,-0.3341,-0.3339,-0.3314,-0.3307,-0.3289,-0.3282,-0.3272,-0.3264,-0.3243,-0.323,-0.3226,-0.3216,-0.32,-0.3187,-0.3185,-0.3179,-0.3173,-0.3172,-0.3199,-0.3202,-0.3205,-0.321,-0.3172,-0.3172,-0.3145,-0.3144,-0.3144]},{"header":{"parameterUnit":"m.s-1","parameterCategory":1,"la1":30.2991,"la2":30.254,"lo1":-89.0895,"lo2":-89.0444,"dy":0.0017,"dx":0.0017,"nx":28,"ny":28,"refTime":"2025-02-07T03:00:00:Z","depth":0,"parameterNumber":3,"parameterNumberName":"V-component_of_WINDS"},"data":[0,0,0,0,0,0,0,0,0,0,0,0,0,0,0,0,0,0,0,0,0,0,0,0,0,0,0,0,0,0,0,0,0,0,0,0,0,0,0,0,0,0,0,0,0,0,0,0,0,0,0,0,0,0,0,0,0,0,4.3542,4.3543,0,4.367,4.3671,4.3673,4.369,4.3688,4.3687,4.3686,4.3811,4.3815,4.3819,0,0,0,0,0,0,0,0,0,0,0,0,0,4.3306,4.331,4.3542,4.3543,4.3545,4.367,4.3671,4.3673,4.369,4.3688,4.3687,4.3686,4.3809,4.3814,4.382,0,0,0,0,0,0,0,0,0,0,0,0,0,4.3418,4.3312,4.3542,4.3569,4.3572,4.3669,4.3671,4.3674,4.369,4.3688,4.3687,4.3685,4.3807,4.3814,4.382,4.3897,0,0,4.3841,4.3844,0,0,0,0,0,0,0,0,4.3412,4.3427,4.3563,4.3567,4.3571,4.3662,4.3634,4.3748,4.3691,4.3645,4.3686,4.3684,4.3762,4.3772,4.38,4.3903,4.3909,4.3841,4.3845,4.3848,4.385,0,0,0,0,0,0,0,4.3404,4.3422,4.3592,4.3565,4.357,4.3572,4.3586,4.3656,4.3712,4.3649,4.3651,4.3666,4.3764,4.3794,4.3803,4.391,4.3841,4.3847,4.3851,4.3854,4.4083,4.4085,0,0,0,0,0,0,4.3392,4.3415,4.3588,4.3596,4.3486,4.3578,4.3594,4.3635,4.3711,4.3721,4.3667,4.3666,4.3783,4.3795,4.3808,4.3904,4.3848,4.3854,4.3858,4.4081,4.4084,4.4086,0,0,0,0,0,0,4.3387,4.3408,4.3583,4.3506,4.3529,4.3584,4.363,4.3638,4.3668,4.3725,4.3735,4.3688,4.3782,4.3798,4.3876,4.3908,4.3857,4.3864,4.4079,4.4082,4.4085,4.4096,0,0,0,0,0,0,4.338,4.3406,4.3437,4.3507,4.3533,4.3651,4.3632,4.3642,4.368,4.368,4.3747,4.3756,4.3782,4.3866,4.3882,4.3917,4.3869,4.4076,4.408,4.4084,4.4093,4.4099,4.4104,0,0,0,0,0,4.3372,4.3434,4.3439,4.3459,4.3573,4.3653,4.3667,4.3698,4.3683,4.3714,4.3751,4.3754,4.3902,4.3873,4.3892,4.3929,4.4074,4.4079,4.4084,4.409,4.4098,4.4104,0,0,0,0,0,0,4.3364,4.3443,4.345,4.3536,4.3588,4.3655,4.3696,4.3705,4.376,4.3757,4.3791,4.3806,4.3881,4.3912,4.388,4.4008,4.3986,4.3995,4.3985,4.3993,4.3998,4.3989,4.3874,0,0,0,0,0,4.3373,4.3433,4.3497,4.3567,4.3593,4.364,4.3675,4.3695,4.3749,4.377,4.3812,4.3863,4.3921,4.3958,4.4014,4.4097,4.4112,4.4131,4.4137,4.4141,4.4149,4.4195,4.4205,4.4102,4.4101,4.4101,0,0,4.339,4.3441,4.3476,4.3567,4.3609,4.3669,4.3658,4.3721,4.3766,4.3779,4.3856,4.3888,4.3946,4.4027,4.4064,4.4055,4.418,4.4147,4.4151,4.4156,4.4201,4.4211,4.4219,4.4105,4.4104,4.4104,0,0,4.3454,4.3498,4.3562,4.3605,4.367,4.3701,4.3716,4.3783,4.3806,4.3883,4.3895,4.3946,4.4045,4.4087,4.4121,4.42,4.4205,4.4217,4.4247,4.4292,4.43,4.4307,4.4336,4.4346,4.4223,4.4224,4.4224,0,4.3468,4.356,4.3593,4.3657,4.3696,4.3713,4.3777,4.3816,4.3895,4.3921,4.391,4.4035,4.4075,4.4166,4.4185,4.4212,4.423,4.421,4.4296,4.4304,4.4311,4.4339,4.435,4.4225,4.4225,4.4224,4.4224,0,4.3574,4.3638,4.3681,4.376,4.3803,4.3866,4.3907,4.3947,4.3962,4.3993,4.4072,4.4121,4.4188,4.421,4.4224,4.4303,4.4296,4.429,4.4269,4.4322,4.4349,4.4359,4.4226,4.4226,4.4226,4.4225,0,0,4.3637,4.3734,4.3749,4.3785,4.3858,4.3907,4.397,4.4038,4.4072,4.4125,4.4178,4.4262,4.4257,4.4296,4.4314,4.4354,4.4414,4.4343,4.4345,4.4355,4.4504,4.4509,4.4521,4.4417,4.4419,4.4421,4.4499,0,4.371,4.3826,4.3858,4.3955,4.4014,4.4031,4.4086,4.4135,4.4166,4.4219,4.4251,4.4311,4.43,4.4323,4.4363,4.4398,4.4444,4.4393,4.4467,4.4469,4.4453,4.4535,4.454,4.4611,4.451,4.4512,4.4513,0,4.3811,4.3869,4.3974,4.404,4.4065,4.4115,4.4179,4.423,4.4286,4.4305,4.4348,4.4364,4.4428,4.4404,4.4493,4.4457,4.4489,4.4511,4.4514,4.4523,4.4495,4.4546,4.4635,4.4646,4.4529,4.4528,4.4527,0,4.3848,4.3952,4.4028,4.4058,4.4137,4.4171,4.4205,4.4259,4.4298,4.4353,4.4378,4.4439,4.4473,4.4519,4.455,4.4529,4.4637,4.4614,4.4654,4.4653,4.4677,4.4675,4.4773,4.4695,4.4695,4.4695,4.4695,0,4.3927,4.399,4.4046,4.4093,4.4164,4.4198,4.4267,4.4301,4.4349,4.4402,4.4418,4.4466,4.4503,4.4556,4.458,4.4651,4.4665,4.4682,4.4688,4.4682,4.468,4.4704,4.47,4.4698,4.4697,4.4697,4.4696,0,4.3981,4.4021,4.4105,4.4173,4.4191,4.4241,4.4298,4.4343,4.4374,4.444,4.4457,4.4505,4.4568,4.4604,4.4682,4.4698,4.4777,4.478,4.4759,4.4762,4.48,4.4797,4.4917,4.4935,4.4845,4.4845,4.4846,0,4.4029,4.4079,4.4152,4.419,4.4225,4.4285,4.4325,4.436,4.44,4.4468,4.4505,4.457,4.4624,4.4723,4.4764,4.4824,4.4829,4.4867,4.4838,4.483,4.483,4.4828,4.4833,4.4872,4.4873,4.4874,4.4874,0,4.4111,4.4129,4.4188,4.4253,4.4301,4.4354,4.4406,4.4435,4.4478,4.4523,4.4589,4.4631,4.4712,4.4776,4.4839,4.4872,4.488,4.4883,4.4895,4.489,4.4877,4.4886,4.4774,4.488,4.488,4.4879,4.4879,4.4879,4.4165,4.421,4.427,4.4334,4.4377,4.4426,4.4472,4.4509,4.4566,4.4637,4.4653,4.4723,4.4776,4.4863,4.4897,4.495,4.4943,4.4961,4.4966,4.497,4.4972,4.4867,4.4962,4.4962,4.4961,4.4961,4.4961,0,4.4249,4.4288,4.4347,4.4421,4.4472,4.4477,4.4534,4.4576,4.4638,4.4688,4.4741,4.4817,4.4879,4.4924,4.4987,4.5021,4.5027,4.5037,4.5035,4.5043,4.4974,4.4958,4.5032,4.5032,4.5031,4.5031,4.5031,4.5031,4.4299,4.4376,4.4401,4.4499,4.4536,4.4607,4.464,4.4684,4.4725,4.4809,4.4862,4.4892,4.494,4.5006,4.5063,4.5074,4.5097,4.5107,4.5119,4.5055,4.5047,4.504,4.5025,4.5111,4.5111,4.5183,4.5183,4.5184]}]]